Disclaimer

Please do not use the information listed here in-flight or in-navigation, as they are not provided to us by the airports but are provided by volunteers, so they might be outdated.

Search


Regions


Airport information page

Radio informations:
Tower (TWR) - 118.8 MHz

Airport informations:
Latitude: 16° 24' 05.40" N
Longitude: 107° 42' 09.41" E
Elevation: 48 feet - 15 meters
Operating hours: N/A
Operating agency: Civil government, landing fees and diplomatic clearance may be required
Timezone: UTC+7
Fuel: N/A

Runway information:
09/27 - 8775 x 130 feet< - >2675 x 40 meters

Recent METARs:
VVPB 212030Z 30009KT 2000 RA BR SCT006 SCT010 BKN040 19/19 Q1020 NOSIG
VVPB 212103Z 30008KT 2000 RA BR SCT006 SCT010 BKN040 19/19 Q1020 NOSIG
VVPB 212103Z 30008KT 2000 RA BR SCT006 SCT010 BKN040 19/19 Q1020 NOSIG

Airport on the map: